| time (UTC) | temp F | wind direction | speed knots | gust knots | rain 1hr in | rain 24hr in | rain mn in | humidity % | barometer mb |
| 20260902234404 | 98 | 97 | 1.7 | 2.6 | 0.00 | 0.00 | 0.00 | 33 | 1013.5 |
| 20260902233902 | 98 | 185 | 2.6 | 3.5 | 0.00 | 0.00 | 0.00 | 33 | 1013.5 |
| 20260902233357 | 99 | 225 | 2.6 | 3.5 | 0.00 | 0.00 | 0.00 | 33 | 1013.4 |
| 20260902232855 | 99 | 159 | 4.3 | 6.1 | 0.00 | 0.00 | 0.00 | 33 | 1013.7 |
| 20260902232351 | 99 | 210 | 2.6 | 3.5 | 0.00 | 0.00 | 0.00 | 33 | 1013.7 |
| 20260902231850 | 99 | 194 | 3.5 | 5.2 | 0.00 | 0.00 | 0.00 | 33 | 1013.6 |
| 20260902231345 | 100 | 176 | 3.5 | 3.5 | 0.00 | 0.00 | 0.00 | 32 | 1013.6 |
| 20260902230841 | 100 | 271 | 0.9 | 1.7 | 0.00 | 0.00 | 0.00 | 32 | 1013.4 |
| 20260902230340 | 100 | 1 | 0.9 | 0.9 | 0.00 | 0.00 | 0.00 | 32 | 1013.7 |
| 20260902225840 | 99 | 11 | 1.7 | 1.7 | 0.00 | 0.00 | 0.00 | 33 | 1013.7 |
| 20260902225335 | 100 | 98 | 3.5 | 6.1 | 0.00 | 0.00 | 0.00 | 33 | 1013.8 |
| 20260902224833 | 100 | 191 | 3.5 | 3.5 | 0.00 | 0.00 | 0.00 | 33 | 1013.6 |
| 20260902224328 | 100 | 85 | 3.5 | 5.2 | 0.00 | 0.00 | 0.00 | 32 | 1013.6 |
| 20260902223826 | 101 | 96 | 6.1 | 7.8 | 0.00 | 0.00 | 0.00 | 31 | 1013.7 |
| 20260902223326 | 100 | 225 | 1.7 | 2.6 | 0.00 | 0.00 | 0.00 | 32 | 1013.7 |
| 20260902222825 | 101 | 182 | 3.5 | 3.5 | 0.00 | 0.00 | 0.00 | 32 | 1014.0 |
| 20260902222324 | 101 | 117 | 1.7 | 2.6 | 0.00 | 0.00 | 0.00 | 32 | 1013.9 |
| 20260902221818 | 100 | 145 | 4.3 | 6.1 | 0.00 | 0.00 | 0.00 | 31 | 1013.8 |
| 20260902221318 | 100 | 157 | 5.2 | 7.0 | 0.00 | 0.00 | 0.00 | 32 | 1014.0 |
| 20260902220814 | 101 | 88 | 3.5 | 5.2 | 0.00 | 0.00 | 0.00 | 32 | 1013.9 |
| 20260902220313 | 102 | 141 | 4.3 | 6.1 | 0.00 | 0.00 | 0.00 | 30 | 1013.9 |
| 20260902215809 | 102 | 45 | 1.7 | 2.6 | 0.00 | 0.00 | 0.00 | 30 | 1013.9 |
| 20260902215309 | 99 | 7 | 0.9 | 0.9 | 0.00 | 0.00 | 0.00 | 33 | 1013.9 |
| 20260902214805 | 99 | 77 | 3.5 | 3.5 | 0.00 | 0.00 | 0.00 | 34 | 1014.1 |
| 20260902214303 | 100 | 91 | 2.6 | 3.5 | 0.00 | 0.00 | 0.00 | 33 | 1014.2 |
| 20260902213759 | 101 | 65 | 2.6 | 2.6 | 0.00 | 0.00 | 0.00 | 32 | 1014.1 |
| 20260902213254 | 101 | 207 | 6.1 | 7.0 | 0.00 | 0.00 | 0.00 | 32 | 1014.2 |
| 20260902212753 | 100 | 142 | 1.7 | 3.5 | 0.00 | 0.00 | 0.00 | 32 | 1014.4 |
| 20260902212250 | 99 | 153 | 3.5 | 3.5 | 0.00 | 0.00 | 0.00 | 33 | 1014.6 |
| 20260902211746 | 100 | 136 | 2.6 | 3.5 | 0.00 | 0.00 | 0.00 | 33 | 1014.5 |
| 20260902211242 | 101 | 219 | 3.5 | 5.2 | 0.00 | 0.00 | 0.00 | 32 | 1014.6 |
| 20260902210741 | 100 | 185 | 4.3 | 5.2 | 0.00 | 0.00 | 0.00 | 32 | 1014.6 |
| 20260902210236 | 102 | 220 | 4.3 | 5.2 | 0.00 | 0.00 | 0.00 | 30 | 1014.7 |
| 20260902205734 | 101 | 66 | 0.9 | 0.9 | 0.00 | 0.00 | 0.00 | 31 | 1014.6 |
| 20260902205230 | 102 | 158 | 3.5 | 6.1 | 0.00 | 0.00 | 0.00 | 31 | 1014.8 |
| 20260902204725 | 103 | 54 | 2.6 | 3.5 | 0.00 | 0.00 | 0.00 | 31 | 1014.9 |
| 20260902204220 | 103 | 7 | 1.7 | 2.6 | 0.00 | 0.00 | 0.00 | 31 | 1014.8 |
| 20260902203715 | 103 | 326 | 1.7 | 2.6 | 0.00 | 0.00 | 0.00 | 31 | 1014.8 |
| 20260902203215 | 102 | 284 | 1.7 | 1.7 | 0.00 | 0.00 | 0.00 | 32 | 1014.9 |
| 20260902202710 | 101 | 36 | 0.9 | 0.9 | 0.00 | 0.00 | 0.00 | 32 | 1014.8 |
| 20260902202207 | 100 | 155 | 3.5 | 3.5 | 0.00 | 0.00 | 0.00 | 33 | 1015.1 |
| 20260902201703 | 100 | 163 | 3.5 | 5.2 | 0.00 | 0.00 | 0.00 | 34 | 1015.1 |
| 20260902201202 | 100 | 270 | 1.7 | 2.6 | 0.00 | 0.00 | 0.00 | 34 | 1015.4 |
| 20260902200657 | 100 | 156 | 3.5 | 5.2 | 0.00 | 0.00 | 0.00 | 33 | 1015.3 |
| 20260902200153 | 100 | 94 | 3.5 | 5.2 | 0.00 | 0.00 | 0.00 | 34 | 1015.4 |
| 20260902195648 | 101 | 231 | 2.6 | 5.2 | 0.00 | 0.00 | 0.00 | 33 | 1015.5 |
| 20260902195148 | 102 | 192 | 4.3 | 6.1 | 0.00 | 0.00 | 0.00 | 32 | 1015.4 |
| 20260902194646 | 102 | 288 | 3.5 | 3.5 | 0.00 | 0.00 | 0.00 | 33 | 1015.7 |
| 20260902194142 | 100 | 24 | 0.0 | 0.0 | 0.00 | 0.00 | 0.00 | 33 | 1015.7 |
| 20260902193638 | 100 | 39 | 0.9 | 0.9 | 0.00 | 0.00 | 0.00 | 34 | 1015.6 |
| 20260902193138 | 100 | 13 | 2.6 | 2.6 | 0.00 | 0.00 | 0.00 | 34 | 1015.9 |
| 20260902192636 | 101 | 241 | 4.3 | 6.1 | 0.00 | 0.00 | 0.00 | 34 | 1015.8 |
| 20260902192131 | 100 | 111 | 1.7 | 2.6 | 0.00 | 0.00 | 0.00 | 35 | 1015.9 |
| 20260902191626 | 99 | 172 | 4.3 | 5.2 | 0.00 | 0.00 | 0.00 | 35 | 1016.0 |
| 20260902191125 | 98 | 309 | 2.6 | 2.6 | 0.00 | 0.00 | 0.00 | 37 | 1015.9 |
| 20260902190621 | 98 | 183 | 2.6 | 5.2 | 0.00 | 0.00 | 0.00 | 38 | 1015.9 |
| 20260902190116 | 99 | 270 | 1.7 | 1.7 | 0.00 | 0.00 | 0.00 | 37 | 1016.2 |
| 20260902185612 | 99 | 206 | 2.6 | 3.5 | 0.00 | 0.00 | 0.00 | 37 | 1016.4 |
| 20260902185107 | 100 | 206 | 5.2 | 7.8 | 0.00 | 0.00 | 0.00 | 35 | 1016.4 |
| 20260902184602 | 99 | 265 | 1.7 | 2.6 | 0.00 | 0.00 | 0.00 | 37 | 1016.4 |
| 20260902184057 | 99 | 240 | 2.6 | 2.6 | 0.00 | 0.00 | 0.00 | 37 | 1016.6 |
| 20260902183554 | 99 | 318 | 3.5 | 5.2 | 0.00 | 0.00 | 0.00 | 37 | 1016.7 |
| 20260902183050 | 98 | 131 | 3.5 | 6.1 | 0.00 | 0.00 | 0.00 | 38 | 1016.8 |
| 20260902182546 | 99 | 141 | 4.3 | 6.1 | 0.00 | 0.00 | 0.00 | 37 | 1017.0 |
| 20260902182042 | 99 | 210 | 3.5 | 5.2 | 0.00 | 0.00 | 0.00 | 36 | 1016.9 |
| 20260902181538 | 99 | 295 | 2.6 | 5.2 | 0.00 | 0.00 | 0.00 | 37 | 1017.2 |
| 20260902181037 | 98 | 159 | 4.3 | 6.1 | 0.00 | 0.00 | 0.00 | 38 | 1017.0 |
| 20260902180532 | 97 | 213 | 2.6 | 2.6 | 0.00 | 0.00 | 0.00 | 39 | 1016.8 |
| 20260902180028 | 98 | 221 | 5.2 | 7.8 | 0.00 | 0.00 | 0.00 | 39 | 1017.3 |
| 20260902175528 | 98 | 114 | 2.6 | 3.5 | 0.00 | 0.00 | 0.00 | 38 | 1017.3 |
| 20260902175024 | 98 | 258 | 1.7 | 1.7 | 0.00 | 0.00 | 0.00 | 39 | 1017.4 |
| 20260902174520 | 97 | 143 | 3.5 | 5.2 | 0.00 | 0.00 | 0.00 | 41 | 1017.3 |
| 20260902174015 | 97 | 165 | 3.5 | 3.5 | 0.00 | 0.00 | 0.00 | 40 | 1017.5 |
| 20260902173515 | 96 | 256 | 2.6 | 2.6 | 0.00 | 0.00 | 0.00 | 42 | 1017.6 |
| 20260902173010 | 97 | 219 | 4.3 | 7.8 | 0.00 | 0.00 | 0.00 | 41 | 1017.6 |
| 20260902172509 | 97 | 222 | 1.7 | 2.6 | 0.00 | 0.00 | 0.00 | 41 | 1017.8 |
| 20260902172005 | 96 | 150 | 1.7 | 2.6 | 0.00 | 0.00 | 0.00 | 41 | 1018.0 |
| 20260902171500 | 96 | 251 | 6.1 | 8.7 | 0.00 | 0.00 | 0.00 | 41 | 1017.8 |
| 20260902170956 | 96 | 228 | 1.7 | 2.6 | 0.00 | 0.00 | 0.00 | 42 | 1018.0 |
| 20260902170456 | 96 | 233 | 2.6 | 2.6 | 0.00 | 0.00 | 0.00 | 41 | 1017.9 |
| 20260902165952 | 96 | 353 | 1.7 | 2.6 | 0.00 | 0.00 | 0.00 | 42 | 1017.9 |
| 20260902165451 | 95 | 201 | 5.2 | 7.0 | 0.00 | 0.00 | 0.00 | 43 | 1018.1 |
| 20260902164946 | 96 | 197 | 2.6 | 5.2 | 0.00 | 0.00 | 0.00 | 43 | 1018.1 |
| 20260902164441 | 96 | 188 | 0.9 | 1.7 | 0.00 | 0.00 | 0.00 | 42 | 1018.3 |
| 20260902163940 | 94 | 229 | 3.5 | 3.5 | 0.00 | 0.00 | 0.00 | 45 | 1018.2 |
| 20260902163436 | 94 | 333 | 3.5 | 3.5 | 0.00 | 0.00 | 0.00 | 44 | 1018.2 |
| 20260902162933 | 94 | 145 | 3.5 | 5.2 | 0.00 | 0.00 | 0.00 | 45 | 1018.3 |
| 20260902162429 | 94 | 253 | 1.7 | 1.7 | 0.00 | 0.00 | 0.00 | 45 | 1018.3 |
| 20260902161928 | 94 | 0 | 3.5 | 5.2 | 0.00 | 0.00 | 0.00 | 46 | 1018.6 |
| 20260902161424 | 94 | 347 | 1.7 | 1.7 | 0.00 | 0.00 | 0.00 | 46 | 1018.5 |
| 20260902160920 | 93 | 234 | 4.3 | 6.1 | 0.00 | 0.00 | 0.00 | 46 | 1018.4 |
| 20260902160415 | 92 | 279 | 5.2 | 7.0 | 0.00 | 0.00 | 0.00 | 48 | 1018.4 |
| 20260902155913 | 91 | 199 | 2.6 | 2.6 | 0.00 | 0.00 | 0.00 | 50 | 1018.4 |
| 20260902155408 | 92 | 204 | 4.3 | 7.0 | 0.00 | 0.00 | 0.00 | 49 | 1018.6 |
| 20260902154902 | 91 | 288 | 2.6 | 3.5 | 0.00 | 0.00 | 0.00 | 50 | 1018.6 |
| 20260902154358 | 90 | 228 | 1.7 | 1.7 | 0.00 | 0.00 | 0.00 | 52 | 1018.6 |
| 20260902153857 | 90 | 166 | 4.3 | 7.0 | 0.00 | 0.00 | 0.00 | 52 | 1018.6 |
| 20260902153356 | 89 | 318 | 0.9 | 1.7 | 0.00 | 0.00 | 0.00 | 54 | 1018.4 |
| 20260902152852 | 90 | 218 | 4.3 | 6.1 | 0.00 | 0.00 | 0.00 | 53 | 1018.8 |
| 20260902152348 | 89 | 161 | 1.7 | 3.5 | 0.00 | 0.00 | 0.00 | 53 | 1018.5 |
| 20260902151843 | 89 | 161 | 2.6 | 2.6 | 0.00 | 0.00 | 0.00 | 54 | 1018.6 |
| 20260902151338 | 89 | 119 | 2.6 | 2.6 | 0.00 | 0.00 | 0.00 | 53 | 1018.4 |
| 20260902150833 | 89 | 34 | 1.7 | 1.7 | 0.00 | 0.00 | 0.00 | 54 | 1018.5 |
| 20260902150329 | 89 | 240 | 3.5 | 3.5 | 0.00 | 0.00 | 0.00 | 54 | 1018.5 |
| 20260902145828 | 89 | 19 | 0.9 | 1.7 | 0.00 | 0.00 | 0.00 | 54 | 1018.6 |
| 20260902145324 | 89 | 43 | 1.7 | 1.7 | 0.00 | 0.00 | 0.00 | 53 | 1018.3 |
| 20260902144819 | 90 | 266 | 5.2 | 7.8 | 0.00 | 0.00 | 0.00 | 52 | 1018.2 |
| 20260902144316 | 89 | 302 | 2.6 | 3.5 | 0.00 | 0.00 | 0.00 | 53 | 1018.4 |
| 20260902143810 | 89 | 167 | 5.2 | 7.0 | 0.00 | 0.00 | 0.00 | 53 | 1018.3 |
| 20260902143305 | 89 | 255 | 4.3 | 6.1 | 0.00 | 0.00 | 0.00 | 52 | 1018.4 |
| 20260902142801 | 89 | 198 | 2.6 | 3.5 | 0.00 | 0.00 | 0.00 | 53 | 1018.3 |
| 20260902142256 | 88 | 222 | 2.6 | 2.6 | 0.00 | 0.00 | 0.00 | 54 | 1018.4 |
| 20260902141756 | 88 | 187 | 2.6 | 3.5 | 0.00 | 0.00 | 0.00 | 53 | 1018.4 |
| 20260902141252 | 87 | 189 | 6.1 | 7.8 | 0.00 | 0.00 | 0.00 | 54 | 1018.2 |
| 20260902140746 | 87 | 164 | 3.5 | 5.2 | 0.00 | 0.00 | 0.00 | 55 | 1018.4 |
| 20260902140241 | 86 | 263 | 2.6 | 2.6 | 0.00 | 0.00 | 0.00 | 56 | 1018.4 |
| 20260902135740 | 86 | 271 | 2.6 | 3.5 | 0.00 | 0.00 | 0.00 | 56 | 1018.6 |
| 20260902135236 | 86 | 195 | 3.5 | 6.1 | 0.00 | 0.00 | 0.00 | 56 | 1018.5 |
| 20260902134736 | 85 | 187 | 2.6 | 2.6 | 0.00 | 0.00 | 0.00 | 56 | 1018.3 |
| 20260902134231 | 84 | 192 | 3.5 | 6.1 | 0.00 | 0.00 | 0.00 | 58 | 1018.2 |
| 20260902133726 | 84 | 199 | 4.3 | 5.2 | 0.00 | 0.00 | 0.00 | 58 | 1018.3 |
| 20260902133225 | 84 | 251 | 3.5 | 3.5 | 0.00 | 0.00 | 0.00 | 58 | 1018.3 |
| 20260902132721 | 84 | 204 | 2.6 | 3.5 | 0.00 | 0.00 | 0.00 | 59 | 1018.3 |
| 20260902132216 | 84 | 213 | 3.5 | 5.2 | 0.00 | 0.00 | 0.00 | 59 | 1018.5 |
| 20260902131712 | 83 | 190 | 3.5 | 6.1 | 0.00 | 0.00 | 0.00 | 60 | 1018.5 |
| 20260902131209 | 83 | 86 | 1.7 | 1.7 | 0.00 | 0.00 | 0.00 | 60 | 1018.3 |
| 20260902130708 | 83 | 226 | 4.3 | 6.1 | 0.00 | 0.00 | 0.00 | 60 | 1018.4 |
| 20260902130204 | 83 | 63 | 2.6 | 3.5 | 0.00 | 0.00 | 0.00 | 61 | 1018.2 |
| 20260902125700 | 83 | 176 | 2.6 | 3.5 | 0.00 | 0.00 | 0.00 | 61 | 1018.4 |
| 20260902125156 | 83 | 69 | 1.7 | 1.7 | 0.00 | 0.00 | 0.00 | 61 | 1018.3 |
| 20260902124652 | 83 | 134 | 3.5 | 3.5 | 0.00 | 0.00 | 0.00 | 61 | 1018.3 |
| 20260902124151 | 82 | 181 | 1.7 | 1.7 | 0.00 | 0.00 | 0.00 | 62 | 1018.1 |
| 20260902123647 | 82 | 121 | 1.7 | 2.6 | 0.00 | 0.00 | 0.00 | 62 | 1018.0 |
| 20260902123142 | 82 | 167 | 2.6 | 3.5 | 0.00 | 0.00 | 0.00 | 63 | 1018.2 |
| 20260902122637 | 82 | 94 | 3.5 | 3.5 | 0.00 | 0.00 | 0.00 | 63 | 1018.0 |
| 20260902122133 | 81 | 62 | 1.7 | 2.6 | 0.00 | 0.00 | 0.00 | 64 | 1018.0 |
| 20260902121632 | 81 | 186 | 3.5 | 6.1 | 0.00 | 0.00 | 0.00 | 64 | 1017.9 |
| 20260902121127 | 81 | 171 | 5.2 | 6.1 | 0.00 | 0.00 | 0.00 | 64 | 1017.6 |
| 20260902120623 | 81 | 181 | 3.5 | 5.2 | 0.00 | 0.00 | 0.00 | 64 | 1017.6 |
| 20260902120120 | 81 | 163 | 3.5 | 3.5 | 0.00 | 0.00 | 0.00 | 64 | 1017.6 |
| 20260902115614 | 81 | 78 | 2.6 | 3.5 | 0.00 | 0.00 | 0.00 | 63 | 1017.6 |
| 20260902115110 | 82 | 108 | 0.9 | 1.7 | 0.00 | 0.00 | 0.00 | 63 | 1017.5 |
| 20260902114606 | 82 | 329 | 3.5 | 5.2 | 0.00 | 0.00 | 0.00 | 63 | 1017.4 |
| 20260902114105 | 81 | 202 | 4.3 | 5.2 | 0.00 | 0.00 | 0.00 | 63 | 1017.3 |
| 20260902113601 | 81 | 112 | 4.3 | 7.0 | 0.00 | 0.00 | 0.00 | 63 | 1017.3 |
| 20260902113056 | 81 | 185 | 5.2 | 6.1 | 0.00 | 0.00 | 0.00 | 63 | 1017.3 |
| 20260902112551 | 81 | 9 | 1.7 | 2.6 | 0.00 | 0.00 | 0.00 | 63 | 1017.3 |
| 20260902112048 | 82 | 178 | 3.5 | 3.5 | 0.00 | 0.00 | 0.00 | 63 | 1017.1 |
| 20260902111544 | 81 | 131 | 3.5 | 5.2 | 0.00 | 0.00 | 0.00 | 63 | 1017.2 |
| 20260902111040 | 81 | 186 | 2.6 | 3.5 | 0.00 | 0.00 | 0.00 | 63 | 1017.2 |
| 20260902110536 | 82 | 208 | 2.6 | 2.6 | 0.00 | 0.00 | 0.00 | 63 | 1017.2 |
| 20260902110031 | 82 | 152 | 1.7 | 1.7 | 0.00 | 0.00 | 0.00 | 63 | 1017.2 |
| 20260902105531 | 82 | 131 | 1.7 | 2.6 | 0.00 | 0.00 | 0.00 | 63 | 1017.2 |
| 20260902105025 | 82 | 38 | 1.7 | 1.7 | 0.00 | 0.00 | 0.00 | 62 | 1017.1 |
| 20260902104521 | 82 | 47 | 0.9 | 1.7 | 0.00 | 0.00 | 0.00 | 62 | 1017.1 |
| 20260902104016 | 82 | 76 | 1.7 | 1.7 | 0.00 | 0.00 | 0.00 | 62 | 1017.1 |
| 20260902103511 | 82 | 169 | 0.9 | 1.7 | 0.00 | 0.00 | 0.00 | 61 | 1017.1 |
| 20260902103007 | 82 | 54 | 0.9 | 1.7 | 0.00 | 0.00 | 0.00 | 61 | 1016.9 |
| 20260902102503 | 82 | 148 | 0.9 | 1.7 | 0.00 | 0.00 | 0.00 | 61 | 1017.2 |
| 20260902102000 | 82 | 109 | 3.5 | 3.5 | 0.00 | 0.00 | 0.00 | 61 | 1017.1 |
| 20260902101459 | 83 | 188 | 2.6 | 3.5 | 0.00 | 0.00 | 0.00 | 61 | 1017.1 |
| 20260902100958 | 83 | 168 | 0.9 | 2.6 | 0.00 | 0.00 | 0.00 | 60 | 1017.1 |
| 20260902100453 | 83 | 266 | 4.3 | 6.1 | 0.00 | 0.00 | 0.00 | 60 | 1017.1 |
| 20260902095953 | 83 | 106 | 0.9 | 1.7 | 0.00 | 0.00 | 0.00 | 60 | 1017.0 |
| 20260902095448 | 83 | 316 | 1.7 | 1.7 | 0.00 | 0.00 | 0.00 | 60 | 1017.1 |
| 20260902094947 | 83 | 28 | 1.7 | 2.6 | 0.00 | 0.00 | 0.00 | 60 | 1016.9 |
| 20260902094444 | 83 | 40 | 0.9 | 1.7 | 0.00 | 0.00 | 0.00 | 60 | 1016.8 |
| 20260902093944 | 83 | 192 | 4.3 | 5.2 | 0.00 | 0.00 | 0.00 | 59 | 1016.9 |
| 20260902093439 | 83 | 35 | 2.6 | 2.6 | 0.00 | 0.00 | 0.00 | 59 | 1016.8 |
| 20260902092938 | 83 | 23 | 0.9 | 1.7 | 0.00 | 0.00 | 0.00 | 59 | 1017.0 |
| 20260902092434 | 84 | 131 | 2.6 | 3.5 | 0.00 | 0.00 | 0.00 | 59 | 1016.6 |
| 20260902091933 | 84 | 176 | 5.2 | 7.0 | 0.00 | 0.00 | 0.00 | 59 | 1017.0 |
| 20260902091429 | 84 | 189 | 2.6 | 2.6 | 0.00 | 0.00 | 0.00 | 58 | 1016.9 |
| 20260902090925 | 84 | 125 | 1.7 | 2.6 | 0.00 | 0.00 | 0.00 | 58 | 1016.7 |
| 20260902090425 | 84 | 126 | 3.5 | 3.5 | 0.00 | 0.00 | 0.00 | 58 | 1016.6 |
| 20260902085924 | 84 | 129 | 2.6 | 3.5 | 0.00 | 0.00 | 0.00 | 58 | 1016.6 |
| 20260902085420 | 84 | 90 | 2.6 | 2.6 | 0.00 | 0.00 | 0.00 | 58 | 1016.7 |
| 20260902084915 | 84 | 113 | 2.6 | 2.6 | 0.00 | 0.00 | 0.00 | 58 | 1016.6 |
| 20260902084411 | 84 | 183 | 4.3 | 6.1 | 0.00 | 0.00 | 0.00 | 58 | 1016.8 |
| 20260902083907 | 84 | 212 | 3.5 | 3.5 | 0.00 | 0.00 | 0.00 | 57 | 1016.7 |
| 20260902083406 | 84 | 50 | 2.6 | 2.6 | 0.00 | 0.00 | 0.00 | 57 | 1016.5 |
| 20260902082901 | 84 | 190 | 4.3 | 6.1 | 0.00 | 0.00 | 0.00 | 57 | 1016.6 |
| 20260902082357 | 84 | 150 | 2.6 | 3.5 | 0.00 | 0.00 | 0.00 | 57 | 1016.7 |
| 20260902081854 | 84 | 216 | 1.7 | 2.6 | 0.00 | 0.00 | 0.00 | 57 | 1016.6 |
| 20260902081349 | 85 | 118 | 3.5 | 7.0 | 0.00 | 0.00 | 0.00 | 56 | 1016.7 |
| 20260902080844 | 85 | 133 | 3.5 | 5.2 | 0.00 | 0.00 | 0.00 | 56 | 1016.6 |
| 20260902080341 | 85 | 187 | 7.8 | 9.6 | 0.00 | 0.00 | 0.00 | 56 | 1016.6 |
| 20260902075840 | 85 | 203 | 4.3 | 6.1 | 0.00 | 0.00 | 0.00 | 56 | 1016.8 |
| 20260902075336 | 85 | 164 | 2.6 | 2.6 | 0.00 | 0.00 | 0.00 | 56 | 1016.7 |
| 20260902074831 | 85 | 107 | 0.9 | 1.7 | 0.00 | 0.00 | 0.00 | 55 | 1016.7 |
| 20260902074327 | 85 | 180 | 3.5 | 6.1 | 0.00 | 0.00 | 0.00 | 55 | 1016.4 |
| 20260902073821 | 85 | 71 | 3.5 | 3.5 | 0.00 | 0.00 | 0.00 | 55 | 1016.7 |
| 20260902073318 | 85 | 206 | 6.1 | 12.2 | 0.00 | 0.00 | 0.00 | 55 | 1016.7 |
| 20260902072814 | 86 | 125 | 4.3 | 5.2 | 0.00 | 0.00 | 0.00 | 54 | 1016.7 |
| 20260902072310 | 86 | 74 | 3.5 | 5.2 | 0.00 | 0.00 | 0.00 | 54 | 1016.4 |
| 20260902071805 | 86 | 211 | 5.2 | 6.1 | 0.00 | 0.00 | 0.00 | 54 | 1016.6 |
| 20260902071300 | 86 | 68 | 4.3 | 6.1 | 0.00 | 0.00 | 0.00 | 54 | 1016.5 |
| 20260902070756 | 86 | 189 | 2.6 | 3.5 | 0.00 | 0.00 | 0.00 | 54 | 1016.6 |
| 20260902070256 | 86 | 183 | 2.6 | 3.5 | 0.00 | 0.00 | 0.00 | 54 | 1016.5 |
| 20260902065755 | 86 | 172 | 4.3 | 6.1 | 0.00 | 0.00 | 0.00 | 53 | 1016.4 |
| 20260902065250 | 86 | 122 | 4.3 | 5.2 | 0.00 | 0.00 | 0.00 | 53 | 1016.7 |
| 20260902064746 | 86 | 39 | 3.5 | 6.1 | 0.00 | 0.00 | 0.00 | 53 | 1016.6 |
| 20260902064242 | 86 | 178 | 3.5 | 3.5 | 0.00 | 0.00 | 0.00 | 53 | 1016.5 |
| 20260902063737 | 86 | 89 | 4.3 | 5.2 | 0.00 | 0.00 | 0.00 | 53 | 1016.7 |
| 20260902063232 | 86 | 319 | 1.7 | 1.7 | 0.00 | 0.00 | 0.00 | 53 | 1016.4 |
| 20260902062731 | 85 | 195 | 4.3 | 5.2 | 0.00 | 0.00 | 0.00 | 54 | 1016.6 |
| 20260902062226 | 85 | 127 | 5.2 | 9.6 | 0.00 | 0.00 | 0.00 | 54 | 1016.7 |
| 20260902061725 | 85 | 147 | 1.7 | 2.6 | 0.00 | 0.00 | 0.00 | 54 | 1016.5 |
| 20260902061221 | 85 | 174 | 3.5 | 3.5 | 0.00 | 0.00 | 0.00 | 54 | 1016.7 |
| 20260902060717 | 85 | 92 | 2.6 | 2.6 | 0.00 | 0.00 | 0.00 | 54 | 1016.5 |
| 20260902060213 | 85 | 300 | 0.9 | 0.9 | 0.00 | 0.00 | 0.00 | 54 | 1016.5 |
| 20260902055709 | 85 | 81 | 3.5 | 5.2 | 0.00 | 0.00 | 0.00 | 53 | 1016.5 |
| 20260902055204 | 85 | 157 | 3.5 | 5.2 | 0.00 | 0.00 | 0.00 | 53 | 1016.5 |
| 20260902054659 | 85 | 118 | 2.6 | 2.6 | 0.00 | 0.00 | 0.00 | 53 | 1016.5 |
| 20260902054155 | 85 | 48 | 0.9 | 1.7 | 0.00 | 0.00 | 0.00 | 53 | 1016.3 |
| 20260902053650 | 85 | 95 | 2.6 | 3.5 | 0.00 | 0.00 | 0.00 | 53 | 1016.5 |
| 20260902053150 | 85 | 137 | 2.6 | 3.5 | 0.00 | 0.00 | 0.00 | 52 | 1016.6 |
| 20260902052649 | 85 | 158 | 1.7 | 1.7 | 0.00 | 0.00 | 0.00 | 52 | 1016.5 |
| 20260902052145 | 85 | 77 | 2.6 | 2.6 | 0.00 | 0.00 | 0.00 | 52 | 1016.6 |
| 20260902051644 | 85 | 348 | 0.0 | 0.9 | 0.00 | 0.00 | 0.00 | 53 | 1016.7 |
| 20260902051139 | 85 | 80 | 0.9 | 0.9 | 0.00 | 0.00 | 0.00 | 52 | 1016.6 |
| 20260902050633 | 85 | 43 | 0.0 | 0.0 | 0.00 | 0.00 | 0.00 | 52 | 1016.7 |
| 20260902050129 | 85 | 8 | 0.9 | 0.9 | 0.00 | 0.00 | 0.00 | 52 | 1016.6 |
| 20260902045624 | 85 | 92 | 0.9 | 1.7 | 0.00 | 0.00 | 0.00 | 52 | 1016.7 |
| 20260902045120 | 85 | 22 | 0.0 | 0.9 | 0.00 | 0.00 | 0.00 | 52 | 1016.6 |
| 20260902044615 | 85 | 10 | 1.7 | 1.7 | 0.00 | 0.00 | 0.00 | 51 | 1016.6 |
| 20260902044111 | 86 | 172 | 0.9 | 0.9 | 0.00 | 0.00 | 0.00 | 51 | 1016.6 |
| 20260902043606 | 86 | 138 | 1.7 | 1.7 | 0.00 | 0.00 | 0.00 | 51 | 1016.6 |
| 20260902043106 | 86 | 143 | 0.9 | 1.7 | 0.00 | 0.00 | 0.00 | 50 | 1016.5 |
| 20260902042600 | 86 | 182 | 2.6 | 2.6 | 0.00 | 0.00 | 0.00 | 50 | 1016.4 |
| 20260902042055 | 86 | 142 | 2.6 | 3.5 | 0.00 | 0.00 | 0.00 | 49 | 1016.4 |
| 20260902041554 | 87 | 196 | 3.5 | 3.5 | 0.00 | 0.00 | 0.00 | 49 | 1016.3 |
| 20260902041049 | 87 | 79 | 3.5 | 5.2 | 0.00 | 0.00 | 0.00 | 49 | 1016.1 |
| 20260902040543 | 87 | 18 | 0.0 | 0.9 | 0.00 | 0.00 | 0.00 | 48 | 1016.4 |
| 20260902040038 | 87 | 142 | 4.3 | 5.2 | 0.00 | 0.00 | 0.00 | 47 | 1016.2 |
| 20260902035531 | 88 | 179 | 3.5 | 3.5 | 0.00 | 0.00 | 0.00 | 47 | 1016.4 |
| 20260902035027 | 88 | 131 | 3.5 | 3.5 | 0.00 | 0.00 | 0.00 | 46 | 1016.3 |
| 20260902034526 | 89 | 45 | 2.6 | 2.6 | 0.00 | 0.00 | 0.00 | 46 | 1016.1 |
| 20260902034025 | 89 | 35 | 0.9 | 1.7 | 0.00 | 0.00 | 0.00 | 45 | 1016.2 |
| 20260902033525 | 89 | 20 | 1.7 | 1.7 | 0.00 | 0.00 | 0.00 | 45 | 1016.3 |
| 20260902033020 | 89 | 45 | 1.7 | 1.7 | 0.00 | 0.00 | 0.00 | 45 | 1016.4 |
| 20260902032513 | 89 | 82 | 2.6 | 3.5 | 0.00 | 0.00 | 0.00 | 45 | 1016.1 |
| 20260902032009 | 89 | 95 | 2.6 | 2.6 | 0.00 | 0.00 | 0.00 | 45 | 1016.0 |
| 20260902031508 | 89 | 57 | 0.9 | 0.9 | 0.00 | 0.00 | 0.00 | 45 | 1016.2 |
| 20260902031005 | 89 | 70 | 2.6 | 3.5 | 0.00 | 0.00 | 0.00 | 45 | 1015.8 |
| 20260902030505 | 89 | 59 | 1.7 | 1.7 | 0.00 | 0.00 | 0.00 | 44 | 1015.8 |
| 20260902030004 | 90 | 36 | 1.7 | 1.7 | 0.00 | 0.00 | 0.00 | 44 | 1015.8 |
| 20260902025459 | 90 | 46 | 0.9 | 0.9 | 0.00 | 0.00 | 0.00 | 44 | 1015.8 |
| 20260902024954 | 90 | 28 | 0.0 | 0.0 | 0.00 | 0.00 | 0.00 | 44 | 1015.8 |
| 20260902024450 | 90 | 311 | 1.7 | 1.7 | 0.00 | 0.00 | 0.00 | 44 | 1015.7 |
| 20260902023949 | 90 | 46 | 0.0 | 0.0 | 0.00 | 0.00 | 0.00 | 44 | 1015.7 |
| 20260902023446 | 90 | 123 | 1.7 | 2.6 | 0.00 | 0.00 | 0.00 | 43 | 1015.7 |
| 20260902022945 | 90 | 22 | 0.0 | 0.9 | 0.00 | 0.00 | 0.00 | 43 | 1015.4 |
| 20260902022440 | 91 | 23 | 0.0 | 0.0 | 0.00 | 0.00 | 0.00 | 43 | 1015.5 |
| 20260902021936 | 91 | 33 | 0.0 | 0.9 | 0.00 | 0.00 | 0.00 | 42 | 1015.3 |
| 20260902021436 | 91 | 22 | 0.0 | 0.9 | 0.00 | 0.00 | 0.00 | 42 | 1015.3 |
| 20260902020932 | 91 | 50 | 0.9 | 1.7 | 0.00 | 0.00 | 0.00 | 41 | 1015.2 |
| 20260902020429 | 91 | 21 | 0.0 | 0.0 | 0.00 | 0.00 | 0.00 | 42 | 1015.3 |
| 20260902015924 | 91 | 92 | 1.7 | 1.7 | 0.00 | 0.00 | 0.00 | 42 | 1015.2 |
| 20260902015420 | 91 | 26 | 0.0 | 0.9 | 0.00 | 0.00 | 0.00 | 42 | 1015.1 |
| 20260902014915 | 91 | 24 | 0.0 | 0.0 | 0.00 | 0.00 | 0.00 | 42 | 1015.1 |
| 20260902014412 | 92 | 20 | 0.0 | 0.0 | 0.00 | 0.00 | 0.00 | 42 | 1015.1 |
| 20260902013910 | 92 | 13 | 0.0 | 0.0 | 0.00 | 0.00 | 0.00 | 41 | 1014.9 |
| 20260902013406 | 93 | 359 | 0.0 | 0.0 | 0.00 | 0.00 | 0.00 | 41 | 1015.0 |
| 20260902012901 | 93 | 8 | 0.0 | 0.9 | 0.00 | 0.00 | 0.00 | 39 | 1014.9 |
| 20260902012357 | 93 | 328 | 0.0 | 0.9 | 0.00 | 0.00 | 0.00 | 39 | 1015.0 |
| 20260902011853 | 93 | 10 | 0.0 | 0.0 | 0.00 | 0.00 | 0.00 | 39 | 1014.9 |
| 20260902011353 | 93 | 57 | 0.9 | 0.9 | 0.00 | 0.00 | 0.00 | 39 | 1014.9 |
| 20260902010852 | 93 | 23 | 0.0 | 0.9 | 0.00 | 0.00 | 0.00 | 38 | 1014.9 |
| 20260902010347 | 94 | 19 | 0.0 | 0.0 | 0.00 | 0.00 | 0.00 | 38 | 1014.7 |
| 20260902005846 | 94 | 13 | 0.0 | 0.9 | 0.00 | 0.00 | 0.00 | 38 | 1014.8 |
| 20260902005340 | 94 | 7 | 0.0 | 0.0 | 0.00 | 0.00 | 0.00 | 38 | 1014.8 |
| 20260902004836 | 95 | 9 | 0.0 | 0.0 | 0.00 | 0.00 | 0.00 | 37 | 1014.8 |
| 20260902004336 | 95 | 42 | 0.0 | 0.0 | 0.00 | 0.00 | 0.00 | 37 | 1014.7 |
| 20260902003831 | 95 | 57 | 0.0 | 0.9 | 0.00 | 0.00 | 0.00 | 37 | 1014.8 |
| 20260902003326 | 96 | 4 | 0.0 | 0.9 | 0.00 | 0.00 | 0.00 | 36 | 1014.9 |
| 20260902002822 | 96 | 2 | 0.9 | 0.9 | 0.00 | 0.00 | 0.00 | 35 | 1014.9 |
| 20260902002321 | 96 | 26 | 0.9 | 0.9 | 0.00 | 0.00 | 0.00 | 35 | 1014.9 |
| 20260902001817 | 97 | 182 | 2.6 | 2.6 | 0.00 | 0.00 | 0.00 | 35 | 1014.8 |
| 20260902001312 | 97 | 54 | 0.9 | 0.9 | 0.00 | 0.00 | 0.00 | 34 | 1014.8 |
| 20260902000812 | 97 | 13 | 1.7 | 1.7 | 0.00 | 0.00 | 0.00 | 34 | 1015.1 |
| 20260902000307 | 97 | 98 | 2.6 | 2.6 | 0.00 | 0.00 | 0.00 | 34 | 1014.9 |
| 20260901235802 | 97 | 6 | 0.0 | 0.9 | 0.00 | 0.00 | 0.00 | 34 | 1014.9 |
| 20260901235256 | 98 | 169 | 3.5 | 3.5 | 0.00 | 0.00 | 0.00 | 34 | 1014.9 |